Date,TemperatureHighF,TemperatureAvgF,TemperatureLowF,DewpointHighF,DewpointAvgF,DewpointLowF,HumidityHigh,HumidityAvg,HumidityLow,PressureMaxIn,PressureMinIn,WindSpeedMaxMPH,WindSpeedAvgMPH,GustSpeedMaxMPH,PrecipitationSumIn
2013-1-1,20.1,12.2,7.5,10.2,2.3,-3.3,77,64,48,30.33,30.18,15,6,15,0.00
2013-1-2,29.5,21.2,7.7,18.1,10.2,-3.3,77,63,43,30.27,30.12,13,4,15,0.00
2013-1-3,26.8,23.4,14.4,20.6,17.1,8.3,85,77,69,30.30,30.12,17,8,20,0.00
2013-1-4,31.6,21.7,11.7,18.1,13.1,5.7,80,70,53,30.30,30.15,20,7,21,0.00
2013-1-5,36.1,28.5,17.8,34.5,24.4,13.7,100,85,66,30.30,29.97,18,6,24,0.00
2013-1-6,35.1,27.8,19.2,32.4,21.8,14.2,90,78,65,30.42,29.97,24,9,27,0.00
2013-1-7,39.9,28.5,17.6,26.2,19.6,12.4,83,70,50,30.39,30.12,25,8,31,0.00
2013-1-8,42.4,34.1,25.0,28.7,26.2,21.9,90,73,54,30.24,30.03,21,5,28,0.00
2013-1-9,42.8,36.1,27.5,30.0,25.3,21.3,80,65,46,30.56,30.00,24,8,29,0.00
2013-1-10,42.4,32.6,23.4,36.9,27.8,19.0,100,83,64,30.59,29.97,17,4,19,0.37
2013-1-11,51.3,44.0,36.9,48.4,43.3,36.9,100,97,86,29.97,29.74,24,6,29,0.21
2013-1-12,51.8,39.5,26.8,47.2,31.8,19.4,88,74,57,30.09,29.74,25,10,26,0.00
2013-1-13,26.6,21.0,14.4,23.6,13.0,2.6,90,71,58,30.30,29.97,20,10,24,0.00
2013-1-14,28.2,18.7,11.5,10.1,6.0,2.6,67,58,43,30.53,30.27,16,5,20,0.00
2013-1-15,32.2,22.2,14.2,15.9,10.8,6.9,81,63,42,30.50,30.18,13,3,15,0.00
2013-1-16,34.0,27.4,17.6,29.9,18.1,7.0,86,68,51,30.18,29.83,23,7,28,0.00
2013-1-17,31.6,22.9,18.1,17.2,8.0,3.4,61,53,43,30.48,30.12,23,8,26,0.00
2013-1-18,41.7,31.6,20.7,29.9,19.7,7.9,76,61,53,30.50,29.91,31,10,37,0.00
2013-1-19,45.1,38.2,21.0,33.3,27.5,6.5,78,66,39,29.97,29.74,52,11,53,0.00
2013-1-20,20.8,13.5,9.5,7.9,0.2,-4.0,63,55,46,30.36,29.97,44,13,46,0.00
2013-1-21,12.0,6.4,-0.9,-3.7,-8.7,-15.5,49,49,49,30.33,30.18,30,13,35,0.00
2013-1-22,9.1,2.4,-5.1,-6.2,-12.4,-19.4,49,49,49,30.42,30.33,25,9,25,0.00
2013-1-23,18.1,12.1,4.8,13.6,1.0,-10.2,86,61,49,30.42,30.12,23,6,26,0.00
2013-1-24,20.5,12.0,1.6,7.0,1.2,-4.5,75,63,46,30.68,30.42,13,4,20,0.00
2013-1-25,25.3,21.2,16.9,17.3,11.6,2.6,83,67,47,30.44,30.00,20,7,21,0.00
2013-1-26,29.7,23.3,10.6,13.7,10.3,3.6,73,58,42,30.44,30.09,13,6,17,1.91
2013-1-27,34.0,28.0,23.2,34.0,22.2,11.6,100,80,59,30.44,29.97,17,5,18,0.00
2013-1-28,43.0,37.3,32.9,42.3,35.4,30.6,100,93,72,30.06,29.85,18,5,18,0.12
2013-1-29,58.8,45.2,36.1,58.6,45.1,36.1,100,100,90,29.91,29.53,17,4,20,1.25
2013-1-30,37.4,30.0,17.1,37.4,27.7,11.1,100,91,73,29.68,29.35,33,10,33,0.20
2013-1-31,17.6,12.4,4.5,11.6,2.9,-6.4,77,65,57,30.21,29.68,34,15,34,0.00
2013-2-1,9.1,3.5,-2.6,-2.0,-7.3,-13.0,60,60,60,30.39,30.18,20,8,20,0.00
2013-2-2,22.3,11.0,2.8,4.5,-2.3,-11.6,60,55,45,30.21,30.06,13,4,13,0.00
2013-2-3,22.6,13.7,4.5,11.5,1.1,-10.1,82,57,48,30.09,30.00,29,6,29,0.00
2013-2-4,28.0,17.9,14.4,15.0,9.4,3.7,82,70,53,30.06,29.97,12,3,14,0.00
2013-2-5,28.6,20.5,0.0,22.3,12.4,0.8,89,70,62,30.18,29.83,15,5,17,0.00
2013-2-6,39.4,25.0,1.4,29.3,15.8,-4.9,85,69,45,30.30,30.15,13,3,13,0.00
2013-2-7,34.9,32.7,24.1,33.1,30.5,21.8,100,92,80,30.21,29.94,7,2,8,0.05
2013-2-8,26.1,22.1,16.0,21.5,18.2,11.5,91,85,75,30.48,30.06,9,1,9,0.00
2013-2-9,33.8,19.3,5.0,25.2,14.9,1.7,95,83,67,30.44,30.18,10,2,12,0.00
2013-2-10,44.2,33.4,15.8,44.1,32.3,13.1,100,96,66,30.18,29.53,22,6,27,0.12
2013-2-11,41.2,32.0,27.1,31.1,24.1,18.0,88,72,64,30.09,29.53,28,14,32,0.00
2013-2-12,29.7,24.7,21.9,19.9,16.6,13.7,83,71,55,30.18,29.97,17,7,20,0.00
2013-2-13,42.4,30.4,19.2,29.7,23.5,16.5,92,77,50,29.97,29.77,13,3,13,0.00
2013-2-14,36.1,33.6,27.1,33.4,27.7,20.0,92,79,63,30.06,29.68,33,9,35,0.00
2013-2-15,28.8,22.8,14.9,25.5,10.5,3.1,88,60,44,30.30,30.06,19,8,20,0.00
2013-2-16,14.9,11.5,11.3,3.5,0.6,0.4,62,61,58,30.27,30.18,24,7,24,0.00
2013-2-17,11.3,11.3,11.3,0.4,0.4,0.4,61,61,61,30.30,30.06,9,3,10,0.00
2013-2-18,47.8,35.2,11.3,43.3,26.6,0.4,100,72,55,30.09,29.50,23,8,26,0.42
2013-2-19,32.0,15.5,9.1,31.0,7.5,-1.1,96,70,59,30.21,29.59,31,17,33,0.00
2013-2-20,24.8,14.3,6.6,8.6,3.1,-3.3,71,61,48,30.44,30.18,22,8,25,0.00
2013-2-21,27.0,21.9,0.0,22.5,15.5,6.0,83,75,67,30.48,30.15,17,5,21,0.00
2013-2-22,34.7,28.6,25.2,28.2,25.0,21.0,96,86,75,30.15,29.85,14,5,17,0.00
2013-2-23,32.7,25.9,20.3,24.1,17.2,12.7,87,70,52,30.03,29.91,14,6,15,0.00
2013-2-24,20.7,20.7,20.7,14.6,14.6,14.6,77,77,77,30.24,30.00,9,3,9,0.00
2013-2-25,30.2,20.8,20.7,24.5,14.7,14.6,79,77,77,30.27,30.15,4,0,5,0.00
2013-2-26,36.3,33.0,29.7,32.7,28.3,23.4,100,84,61,30.15,29.68,25,9,29,0.04
2013-2-27,38.7,33.1,30.4,33.3,31.8,28.9,100,95,78,29.83,29.65,15,5,16,0.12
2013-2-28,37.0,31.8,25.3,31.8,25.5,16.2,97,78,61,30.21,29.83,17,7,18,0.08
2013-3-1,27.0,25.1,23.4,19.4,17.5,14.7,79,73,66,30.30,30.18,19,7,20,0.00
2013-3-2,34.5,21.6,10.8,16.0,9.9,2.5,71,61,45,30.33,30.24,15,5,16,0.00
2013-3-3,38.5,18.8,5.7,13.9,4.5,-3.7,81,55,34,30.27,30.12,11,3,11,0.00
2013-3-4,40.1,23.9,6.3,22.3,12.0,-5.7,72,60,47,30.24,30.12,13,3,14,0.00
2013-3-5,33.4,30.6,27.1,28.8,24.9,21.6,92,79,70,30.15,29.94,17,6,17,0.00
2013-3-6,35.4,30.1,26.2,25.6,23.8,21.6,87,78,64,30.39,30.12,18,8,20,0.00
2013-3-7,42.1,29.1,15.6,22.5,17.5,10.8,81,64,42,30.50,30.36,9,3,9,0.04
2013-3-8,46.9,27.2,9.1,28.8,18.4,4.5,86,71,48,30.56,30.39,10,3,10,0.00
2013-3-9,42.4,34.9,27.0,32.1,28.2,21.3,89,77,63,30.39,29.91,12,4,13,0.05
2013-3-10,44.1,39.0,34.5,43.7,38.8,31.9,100,99,89,29.91,29.71,11,3,13,0.74
2013-3-11,39.2,34.8,31.8,39.2,34.2,27.3,100,98,83,29.83,29.62,17,5,18,0.00
2013-3-12,34.2,29.9,24.8,29.0,23.6,16.5,95,78,50,30.09,29.83,23,9,23,0.00
2013-3-13,33.8,25.7,20.1,19.4,12.0,6.7,80,58,40,30.39,30.06,25,12,28,0.00
2013-3-14,39.6,28.4,19.0,26.6,16.7,7.6,87,62,43,30.42,30.15,10,3,14,0.00
2013-3-15,38.3,32.7,28.2,32.4,28.9,25.0,93,86,74,30.15,29.88,15,3,17,0.04
2013-3-16,38.5,30.2,26.8,28.5,22.7,16.3,93,75,47,30.21,29.88,15,6,17,0.00
2013-3-17,37.4,28.4,20.8,21.7,14.9,8.4,74,57,44,30.36,30.12,15,6,18,0.00
2013-3-18,38.1,30.0,19.6,31.5,23.8,9.5,94,78,60,30.12,29.68,27,7,27,0.09
2013-3-19,32.4,21.8,13.6,12.3,7.9,4.4,72,56,42,30.09,29.80,32,14,33,0.00
2013-3-20,22.1,17.6,11.8,8.0,4.1,-1.0,63,55,46,30.15,30.06,26,12,30,0.00
2013-3-21,33.3,21.2,14.9,14.2,7.1,2.8,61,54,43,30.12,30.06,20,8,23,0.00
2013-3-22,38.7,26.3,15.4,17.2,11.6,6.6,70,55,39,30.18,30.06,10,4,14,0.00
2013-3-23,42.4,30.5,20.7,23.6,19.0,13.1,80,64,41,30.21,30.12,9,3,12,0.00
2013-3-24,37.9,33.0,30.2,27.0,23.4,19.2,79,68,59,30.15,29.83,22,7,25,0.00
2013-3-25,35.6,32.1,28.9,26.7,23.9,19.7,84,71,56,30.18,29.83,20,7,23,0.00
2013-3-26,41.9,35.3,31.1,27.5,24.7,21.9,79,65,52,30.33,30.18,19,7,21,0.00
2013-3-27,42.1,35.7,29.1,25.0,21.4,18.3,70,56,41,30.42,30.30,15,5,17,0.00
2013-3-28,49.3,36.6,28.4,24.4,21.1,17.6,70,55,37,30.42,30.36,11,4,12,0.00
2013-3-29,53.4,38.0,27.1,28.4,22.5,17.3,80,56,35,30.42,30.30,11,2,13,0.00
2013-3-30,57.2,43.4,29.1,40.0,29.6,20.3,77,59,42,30.33,29.88,23,6,23,0.00
2013-3-31,52.2,42.2,34.0,43.1,34.8,21.7,100,77,46,30.00,29.77,32,11,34,0.00
2013-4-1,39.0,32.3,27.7,23.5,16.6,12.2,80,52,41,30.30,29.94,26,10,29,0.00
2013-4-2,41.5,32.3,24.4,18.2,15.2,11.8,67,50,37,30.39,30.24,23,8,24,0.00
2013-4-3,46.6,34.7,24.8,21.0,16.8,13.6,71,49,31,30.53,30.39,12,4,13,0.00
2013-4-4,58.3,42.4,29.1,33.5,23.0,12.3,68,47,35,30.39,30.03,18,6,22,0.00
2013-4-5,49.5,39.2,32.2,30.0,23.9,18.0,78,55,39,30.33,30.09,13,5,15,0.00
2013-4-6,65.1,48.4,34.5,49.8,33.2,20.8,87,58,36,30.27,29.65,24,8,33,0.04
2013-4-7,59.4,45.8,35.8,50.2,35.4,28.7,90,68,42,30.12,29.68,29,9,30,0.00
2013-4-8,58.8,43.7,35.4,47.2,39.2,29.4,100,85,63,30.09,29.65,26,6,27,0.41
2013-4-9,41.2,38.6,37.4,41.2,38.5,37.4,100,99,91,30.15,29.97,22,6,24,1.87
2013-4-10,38.8,37.1,34.9,38.5,36.9,34.9,100,99,95,30.18,29.97,24,8,26,0.75
2013-4-11,38.5,37.3,35.4,38.5,37.3,35.4,100,100,100,30.03,29.68,26,7,28,0.45
2013-4-12,42.3,38.0,35.6,38.6,34.9,26.8,100,89,68,29.94,29.65,16,7,17,0.05
2013-4-13,38.8,36.1,32.2,28.7,25.9,20.9,80,67,51,30.09,29.88,26,8,27,0.00
2013-4-14,52.3,40.1,31.8,46.3,34.5,25.6,95,81,60,30.15,29.74,19,5,23,0.08
2013-4-15,63.3,52.7,41.7,53.4,46.0,32.5,100,80,43,30.09,29.74,38,8,38,0.21
2013-4-16,60.6,44.6,36.1,40.7,33.6,29.2,96,68,36,30.42,30.06,19,5,21,0.00
2013-4-17,42.6,40.8,39.0,42.4,36.1,29.0,100,84,63,30.42,29.97,18,5,24,0.95
2013-4-18,58.8,46.7,39.9,58.6,45.7,32.5,100,97,73,29.97,29.47,27,6,33,1.66
2013-4-19,40.6,37.2,32.5,32.1,26.6,21.5,87,66,51,29.97,29.53,36,14,40,0.00
2013-4-20,50.9,35.8,28.0,26.8,20.2,14.7,77,54,31,30.50,29.97,26,9,28,0.00
2013-4-21,51.3,41.3,31.5,31.0,25.7,21.1,80,56,38,30.62,30.39,17,6,19,0.00
2013-4-22,67.3,52.9,40.3,38.7,32.6,27.6,70,47,33,30.39,30.12,14,5,16,0.00
2013-4-23,54.5,45.4,38.7,48.1,40.5,33.1,97,84,53,30.15,29.97,23,7,24,0.33
2013-4-24,55.9,43.5,36.1,33.4,27.1,22.9,80,55,30,30.18,30.03,18,6,21,0.00
2013-4-25,55.2,45.6,40.5,36.6,30.0,25.5,82,56,36,30.39,30.09,22,8,27,0.00
2013-4-26,68.7,54.1,38.7,44.6,36.0,25.5,76,52,36,30.42,30.27,28,9,32,0.00
2013-4-27,70.7,58.1,46.4,47.2,42.7,38.0,91,59,35,30.39,30.12,13,4,13,0.00
2013-4-28,73.9,58.4,50.7,51.4,45.1,38.7,90,63,40,30.12,29.88,10,2,10,0.00
2013-4-29,72.0,61.5,50.5,55.2,50.8,47.1,95,70,44,29.97,29.83,15,5,17,0.00
2013-4-30,87.1,73.1,62.6,58.6,54.2,47.8,82,55,29,29.97,29.83,32,11,37,0.00
2013-5-1,84.9,72.3,51.1,57.4,51.5,39.3,67,50,28,30.27,29.97,17,7,24,0.00
2013-5-2,62.2,49.3,41.0,46.2,39.7,33.3,96,71,47,30.36,30.24,18,6,25,1.45
2013-5-3,47.7,43.6,38.8,46.7,42.3,37.8,100,95,89,30.27,30.09,16,6,20,0.54
2013-5-4,75.7,57.6,46.2,50.5,45.7,42.0,94,68,35,30.18,30.06,13,4,15,0.00
2013-5-5,76.6,59.7,47.3,45.9,42.2,34.7,88,56,33,30.18,30.09,13,3,13,0.00
2013-5-6,78.1,61.7,47.5,44.5,39.0,33.2,76,47,23,30.18,30.06,11,3,13,0.00
2013-5-7,83.5,64.9,50.2,46.9,41.7,35.0,75,46,27,30.15,30.06,10,3,11,0.00
2013-5-8,81.5,64.4,48.7,52.6,44.1,38.1,85,52,25,30.15,30.00,11,2,11,0.00
2013-5-9,68.9,57.8,44.8,55.5,49.4,43.7,96,75,51,30.06,29.94,19,3,20,0.17
2013-5-10,48.9,45.4,42.6,45.1,43.0,41.1,100,91,81,30.09,29.91,17,5,23,0.70
2013-5-11,54.5,47.5,41.2,49.9,37.9,26.3,100,73,38,30.12,29.88,40,9,40,0.00
2013-5-12,55.8,45.4,38.5,32.8,28.1,24.3,68,52,35,30.24,30.12,24,9,27,0.00
2013-5-13,62.8,47.6,35.8,36.5,31.5,27.5,89,57,29,30.30,30.09,12,4,14,0.00
2013-5-14,86.5,67.0,48.7,58.3,46.5,32.0,78,49,29,30.09,29.68,18,6,19,0.00
2013-5-15,78.4,71.3,58.5,58.3,48.0,41.5,66,45,28,29.91,29.65,17,6,22,0.00
2013-5-16,79.9,65.3,54.1,51.1,43.1,30.8,74,47,31,30.06,29.88,13,2,13,0.00
2013-5-17,67.1,57.7,52.5,48.3,41.5,30.7,74,55,37,30.18,30.06,12,4,15,0.00
2013-5-18,79.7,65.1,51.6,60.1,51.7,43.1,79,63,47,30.18,30.03,12,3,12,0.00
2013-5-19,86.5,70.2,56.3,64.4,59.4,52.1,91,70,45,30.09,29.83,13,3,17,0.04
2013-5-20,87.6,75.6,66.4,67.1,58.9,51.6,92,60,31,29.85,29.74,22,6,26,0.04
2013-5-21,81.7,70.8,63.9,65.1,59.6,51.7,95,71,38,29.80,29.71,20,6,27,0.09
2013-5-22,68.0,62.4,55.2,64.6,59.0,53.7,96,89,76,29.85,29.71,11,2,11,0.37
2013-5-23,61.3,51.2,42.3,53.8,44.4,33.0,97,79,46,30.42,29.85,17,5,17,0.08
2013-5-24,63.7,49.6,38.5,40.6,34.2,30.9,80,57,39,30.56,30.42,10,3,11,0.00
2013-5-25,63.9,52.7,43.7,39.6,35.4,29.9,79,53,36,30.53,30.39,11,2,11,0.00
2013-5-26,67.1,54.7,42.6,45.0,39.2,30.5,77,57,35,30.42,30.24,13,3,18,0.00
2013-5-27,54.3,52.6,50.9,53.1,48.4,38.8,100,87,58,30.27,30.00,14,4,20,0.09
2013-5-28,71.8,61.2,51.6,67.5,60.1,50.8,100,97,78,30.03,29.83,12,2,13,0.54
2013-5-29,82.4,70.7,62.6,67.8,64.2,59.5,100,82,55,30.03,29.88,13,3,13,0.00
2013-5-30,84.0,75.0,64.2,68.9,65.0,60.9,94,72,53,30.00,29.83,20,6,28,0.20
2013-5-31,77.5,69.8,63.7,66.1,63.1,57.4,100,81,52,29.94,29.80,23,6,23,0.17
2013-6-1,78.8,70.2,64.8,67.8,62.7,58.7,95,78,55,29.83,29.71,17,5,20,0.04
2013-6-2,65.5,56.6,49.5,60.0,48.6,41.2,94,75,56,30.15,29.77,19,4,21,0.00
2013-6-3,68.5,55.2,46.8,50.2,44.6,39.3,96,72,35,30.21,30.12,6,2,9,0.00
2013-6-5,65.1,59.8,53.4,50.2,47.5,43.5,81,64,51,30.18,30.06,11,3,14,0.00
2013-6-6,61.7,57.0,53.8,52.2,49.5,45.0,85,76,65,30.09,30.00,8,2,9,0.00
2013-6-7,76.8,61.9,53.6,50.0,43.6,35.9,75,54,30,30.12,30.00,13,3,13,0.00
2013-6-8,73.2,60.9,50.2,50.4,46.3,41.4,85,61,34,30.15,30.00,6,1,7,0.00
2013-6-9,77.0,66.5,55.2,58.6,53.8,47.9,79,65,47,30.15,29.91,12,3,15,0.00
2013-6-10,80.4,68.3,61.7,65.9,61.9,57.6,94,81,58,29.97,29.85,6,1,7,0.00
2013-6-11,87.1,72.8,62.1,65.4,61.0,56.9,96,70,37,30.03,29.88,9,2,11,0.00
2013-6-12,76.8,69.5,63.0,66.1,63.6,58.8,100,82,65,30.00,29.74,18,2,22,0.62
2013-6-13,76.6,65.9,57.9,63.0,55.4,48.9,100,71,46,30.18,29.77,11,3,21,0.00
2013-6-14,78.3,64.3,55.0,56.1,50.4,44.7,82,62,41,30.27,30.09,9,2,10,0.00
2013-6-15,79.7,66.7,56.5,69.9,60.9,47.5,100,82,68,30.18,29.91,8,2,13,0.34
2013-6-16,85.5,73.9,66.4,69.7,59.9,49.7,100,66,32,30.00,29.91,12,4,15,0.50
2013-6-17,86.5,70.8,59.4,61.2,55.9,49.6,88,62,32,30.06,29.88,13,3,16,0.00
2013-6-18,74.5,63.0,55.8,55.3,48.8,38.1,82,61,37,30.18,30.00,13,4,13,0.00
2013-6-19,78.6,63.8,51.6,50.2,44.6,37.9,77,52,33,30.27,30.15,8,2,12,0.00
2013-6-20,84.6,70.0,55.0,59.1,52.0,40.2,73,54,39,30.27,30.12,10,2,10,0.00
2013-6-21,75.6,70.3,64.4,68.5,64.2,54.2,100,82,61,30.21,30.00,20,3,21,0.53
2013-6-22,77.4,70.9,66.6,71.3,68.1,65.5,100,92,78,30.21,30.03,13,3,13,1.45
2013-6-23,87.3,75.4,67.3,71.9,67.3,60.9,97,77,51,30.12,29.94,15,4,19,0.00
2013-6-24,81.9,73.7,69.4,70.0,66.9,63.5,93,80,60,30.15,29.94,11,3,12,0.00
2013-6-25,80.8,72.1,66.2,72.8,68.8,65.3,100,90,69,30.03,29.88,10,2,15,1.42
2013-6-26,81.9,71.6,67.8,69.8,67.6,65.4,100,88,62,29.94,29.83,9,2,13,0.33
2013-6-27,84.6,74.3,67.1,72.2,68.0,61.0,100,83,49,29.91,29.77,11,2,14,0.04
2013-6-28,78.8,71.1,66.2,65.8,62.5,55.8,95,76,50,29.80,29.71,20,6,24,0.00
2013-6-29,78.1,67.6,64.6,63.0,58.6,50.8,91,75,42,29.91,29.71,17,4,20,0.00
2013-6-30,80.4,68.8,60.6,56.8,48.9,40.1,68,51,30,30.12,29.88,17,4,22,0.00
2013-7-1,84.4,69.3,59.0,51.5,46.6,41.1,67,46,30,30.21,30.09,15,3,16,0.00
2013-7-2,73.9,63.9,59.2,56.3,50.5,44.0,80,63,38,30.21,30.15,10,2,11,0.04
2013-7-3,68.5,64.4,61.0,63.8,59.0,51.7,94,83,71,30.18,30.12,6,1,8,0.00
2013-7-4,82.6,70.5,60.4,64.8,60.8,52.1,100,75,39,30.21,30.12,7,1,8,0.00
2013-7-5,85.3,74.0,63.9,64.7,60.8,54.7,90,66,39,30.21,30.06,8,2,10,0.00
2013-7-6,86.2,74.0,64.2,67.9,63.1,57.3,92,71,40,30.18,30.00,7,2,8,0.00
2013-7-7,86.4,77.8,70.2,70.0,67.9,62.2,91,73,47,30.09,29.97,8,3,10,0.00
2013-7-8,85.5,76.8,71.4,75.1,70.6,66.8,94,82,67,30.09,29.97,13,3,15,0.54
2013-7-9,84.6,74.6,68.7,76.2,71.5,67.8,97,90,68,30.09,29.88,12,2,13,1.04
2013-7-10,80.4,74.7,65.5,75.3,62.9,52.0,95,69,40,30.12,29.88,14,4,18,0.00
2013-7-11,84.6,69.7,60.6,62.7,55.2,47.0,92,64,31,30.21,30.09,6,2,9,0.00
2013-7-12,87.1,69.2,57.6,59.8,56.0,50.6,94,66,35,30.30,30.15,8,1,8,0.00
2013-7-13,87.3,71.8,60.3,64.3,58.3,53.3,95,66,32,30.27,30.18,10,2,11,0.00
2013-7-14,90.9,76.0,65.7,70.0,65.4,60.6,93,72,41,30.33,30.24,8,2,10,0.00
2013-7-15,90.5,78.6,69.4,74.5,71.0,66.0,94,79,57,30.39,30.30,8,2,9,0.00
2013-7-16,93.9,82.1,73.6,75.7,72.8,69.5,94,75,46,30.39,30.30,8,2,10,0.00
2013-7-17,93.9,83.3,75.7,75.4,72.0,68.2,91,70,45,30.39,30.21,12,2,12,0.00
2013-7-18,93.9,83.9,75.7,74.8,71.0,65.9,91,67,42,30.27,29.97,11,3,15,0.00
2013-7-19,91.8,83.9,76.5,72.7,70.2,67.3,78,64,47,30.00,29.80,17,5,19,0.00
2013-7-20,82.9,73.8,66.7,68.9,61.3,56.5,82,66,44,30.09,29.85,10,2,13,0.00
2013-7-21,82.0,69.6,64.2,68.6,61.9,55.6,100,78,59,30.09,29.94,28,3,34,3.03
2013-7-22,87.3,74.0,63.7,72.4,66.3,56.9,100,80,45,30.00,29.77,15,3,17,0.00
2013-7-23,77.9,69.5,61.0,64.8,56.8,47.8,89,66,39,30.09,29.77,13,3,14,0.00
2013-7-24,76.8,64.5,56.7,56.0,52.9,48.8,92,68,44,30.18,30.06,7,2,9,0.00
2013-7-25,76.8,67.3,56.1,59.1,55.7,52.5,93,68,47,30.21,30.06,9,3,11,0.00
2013-7-26,73.8,66.8,63.7,68.9,62.1,57.2,100,85,67,30.09,29.94,12,4,15,0.21
2013-7-27,63.5,58.8,55.0,58.9,50.6,43.0,94,75,51,30.03,29.94,14,5,16,0.00
2013-7-28,70.0,59.7,53.4,53.1,50.2,45.5,94,72,46,30.09,29.94,13,5,18,0.00
2013-7-29,77.9,63.6,56.5,57.3,53.9,51.1,91,72,48,30.30,30.09,6,2,8,0.00
2013-7-30,73.9,64.9,57.2,63.8,59.9,54.8,96,85,58,30.30,30.18,6,2,8,0.12
2013-7-31,75.4,66.6,63.3,66.6,64.4,61.7,100,93,68,30.21,30.03,24,1,24,0.67
2013-8-1,79.9,67.7,60.4,63.7,57.2,49.1,100,73,38,30.12,30.00,13,3,14,0.00
2013-8-2,78.6,69.5,62.4,66.6,60.9,55.7,100,76,47,30.06,29.94,8,3,11,0.21
2013-8-3,82.4,67.8,58.3,58.3,54.3,47.8,90,65,34,30.21,30.03,10,2,11,0.00
2013-8-4,73.9,65.2,57.9,61.2,56.0,53.6,94,74,51,30.33,30.21,8,2,10,0.00
2013-8-5,72.3,64.7,58.1,62.5,58.8,55.5,93,82,64,30.24,29.94,9,2,10,0.00
2013-8-6,84.0,72.6,63.9,71.1,66.1,62.5,97,81,57,30.00,29.88,10,2,12,0.00
2013-8-7,85.1,74.9,66.2,72.3,66.7,58.9,96,78,48,30.09,29.83,10,3,11,0.00
2013-8-8,81.0,68.8,62.6,63.3,55.2,45.8,94,66,33,30.15,30.06,7,2,9,0.00
2013-8-9,81.3,69.3,59.0,64.7,59.0,53.8,87,71,50,30.15,30.06,10,2,15,0.00
2013-8-10,77.2,68.0,59.7,63.8,57.0,49.9,93,71,43,30.30,30.15,6,1,8,0.00
2013-8-11,74.1,65.9,58.3,64.8,60.7,56.0,94,84,66,30.30,30.12,6,1,6,0.03
2013-8-12,83.8,70.7,65.5,69.5,64.8,57.3,100,83,42,30.15,29.94,11,1,13,0.50
2013-8-13,70.3,62.0,54.7,58.6,48.3,42.7,84,62,42,30.27,30.06,12,3,13,0.00
2013-8-14,77.4,61.7,52.2,53.4,50.1,45.6,93,69,34,30.33,30.21,6,2,8,0.00
2013-8-15,79.7,65.8,57.4,57.3,52.2,46.9,82,64,38,30.27,30.18,8,2,8,0.00
2013-8-16,82.9,67.9,58.6,60.3,55.2,50.0,91,67,35,30.30,30.21,6,1,7,0.00
2013-8-17,82.6,67.2,55.4,65.9,56.0,52.8,97,71,39,30.36,30.24,6,1,6,0.00
2013-8-18,81.5,67.5,56.1,64.8,56.9,53.5,94,72,41,30.33,30.18,6,1,8,0.00
2013-8-19,81.7,69.8,58.6,63.5,59.5,56.0,93,72,45,30.24,26.31,8,1,10,0.00
2013-8-20,84.9,74.2,63.9,67.0,62.6,58.9,95,70,44,30.21,30.06,11,3,12,0.00
2013-8-21,87.3,77.6,69.6,68.9,65.3,62.0,84,67,46,30.18,29.97,14,4,15,0.21
2013-8-22,76.3,70.6,64.4,71.7,67.3,61.1,100,89,74,30.24,30.06,24,2,25,1.45
2013-8-23,81.1,68.5,59.4,65.8,58.1,53.8,97,73,41,30.33,30.21,9,1,9,0.00
2013-8-24,82.6,70.1,57.7,66.4,60.1,56.3,100,73,45,30.42,30.24,7,2,10,0.00
2013-8-25,87.8,76.9,67.1,69.3,62.9,54.9,81,63,41,30.33,30.15,12,4,15,0.00
2013-8-26,89.1,79.1,71.8,72.8,67.7,62.7,81,69,55,30.24,30.03,12,4,12,0.00
2013-8-27,92.5,83.1,74.8,72.9,70.4,66.9,86,67,45,30.06,29.85,11,3,15,0.00
2013-8-28,86.2,77.3,69.6,72.5,68.9,63.9,90,76,51,30.15,29.88,10,2,10,0.00
2013-8-29,87.1,75.4,65.7,72.0,67.2,64.5,97,78,52,30.24,30.03,7,1,8,0.00
2013-8-30,92.7,75.1,68.4,75.2,68.3,59.7,91,81,42,30.09,29.80,36,3,36,0.38
2013-8-31,80.4,70.4,65.7,69.3,65.3,62.0,93,84,62,30.00,29.88,8,2,8,0.00
2013-9-1,83.7,70.5,61.9,69.8,66.0,61.7,100,87,57,29.94,29.83,10,2,19,0.70
2013-9-2,73.8,65.7,59.2,63.9,58.5,52.2,96,79,51,30.09,29.88,10,2,10,0.00
2013-9-3,78.4,63.0,54.1,56.9,53.1,49.4,94,73,42,30.21,30.06,6,1,6,0.00
2013-9-4,80.2,67.1,56.3,63.9,58.5,53.5,93,76,50,30.24,30.12,8,2,9,0.00
2013-9-5,75.9,65.9,55.9,63.2,52.5,43.2,90,64,39,30.39,30.21,12,2,12,0.00
2013-9-6,84.4,68.2,52.9,65.3,58.3,49.7,94,73,51,30.36,30.06,8,2,13,0.00
2013-9-7,80.1,72.4,66.6,70.9,65.7,61.7,93,80,55,30.12,29.97,15,2,16,0.17
2013-9-8,73.6,68.9,66.4,67.4,64.5,61.2,91,86,71,30.18,30.06,13,3,17,0.00
2013-9-9,89.2,77.6,67.3,74.7,70.3,64.8,94,79,60,30.09,29.83,10,3,10,0.00
2013-9-10,92.8,83.7,76.6,69.3,61.5,55.8,65,49,31,30.03,29.91,16,5,19,0.00
2013-9-11,81.7,75.1,70.0,67.7,64.1,61.0,89,69,52,30.18,30.00,10,2,11,0.00
2013-9-12,76.1,67.6,59.2,64.7,59.2,49.4,94,76,45,30.21,30.03,17,3,18,0.00
2013-9-13,67.8,57.4,49.5,49.4,42.7,39.2,78,59,38,30.33,30.18,13,3,19,0.00
2013-9-14,72.0,58.5,46.4,51.0,44.7,42.1,94,64,37,30.30,30.12,9,2,10,0.00
2013-9-15,59.7,57.6,54.3,59.7,53.5,42.8,100,88,55,30.33,30.12,11,2,13,0.37
2013-9-16,68.7,56.4,46.9,57.6,47.6,40.3,100,76,44,30.53,30.30,13,3,17,0.00
2013-9-17,72.3,57.3,45.1,58.3,50.0,43.5,96,78,52,30.44,30.21,9,2,10,0.00
2013-9-18,77.7,67.3,58.5,65.4,59.3,52.1,93,76,60,30.21,30.00,13,3,14,0.09
2013-9-19,81.1,72.2,67.5,71.7,67.9,62.6,100,87,65,30.06,29.83,28,4,28,0.87
2013-9-20,72.5,66.8,57.9,68.5,60.9,51.3,100,82,59,29.94,29.83,13,5,13,0.00
2013-9-21,59.2,56.2,51.1,57.0,48.4,41.4,95,76,54,30.09,29.88,12,4,12,0.00
2013-9-22,67.6,54.0,45.9,47.2,43.6,40.7,90,70,45,30.21,30.06,7,2,7,0.00
2013-9-23,69.4,55.8,46.6,52.3,47.0,43.9,95,75,47,30.27,30.18,8,2,8,0.00
2013-9-24,70.7,58.2,49.3,56.9,49.8,46.4,100,77,47,30.21,30.06,10,2,11,0.00
2013-9-25,72.7,57.7,47.8,60.1,49.5,45.2,100,77,46,30.15,30.06,10,2,11,0.00
2013-9-26,77.5,59.3,47.5,61.9,49.4,42.9,100,74,35,30.24,30.06,10,1,10,0.00
2013-9-27,78.3,62.0,48.6,55.9,51.0,46.9,97,71,40,30.30,30.15,10,2,12,0.00
2013-9-28,80.8,67.0,55.8,65.9,56.5,51.5,100,73,39,30.18,29.94,17,5,23,0.04
2013-9-29,73.8,58.9,51.1,56.9,48.4,38.9,100,73,34,30.18,30.00,6,2,10,0.04
2013-9-30,77.5,59.2,46.8,52.7,47.3,44.0,96,69,35,30.12,29.94,10,2,13,0.00
2013-10-1,83.7,67.9,57.9,62.8,57.4,48.6,96,71,41,30.03,29.94,18,5,21,0.00
2013-10-2,79.3,63.3,52.5,57.7,49.4,41.3,96,66,31,30.21,30.03,8,1,9,0.00
2013-10-3,76.1,66.7,57.9,68.9,62.9,51.6,100,88,69,30.09,29.94,9,2,12,0.09
2013-10-4,68.7,65.5,63.1,66.6,64.2,62.1,100,96,92,30.09,29.97,9,2,12,0.12
2013-10-5,74.3,66.3,63.5,72.1,66.0,63.5,100,99,90,30.09,29.94,6,1,6,0.00
2013-10-6,65.1,54.8,47.1,65.1,46.4,37.4,100,75,46,29.88,29.77,11,4,11,0.08
2013-10-7,72.5,53.9,46.4,50.4,44.6,40.7,100,74,38,30.21,29.83,14,4,16,0.00
2013-10-8,79.0,58.8,44.8,54.0,47.1,43.2,97,70,33,30.30,30.18,15,2,15,0.00
2013-10-9,72.7,59.0,49.8,52.1,46.7,42.3,92,67,35,30.36,30.24,10,2,11,0.00
2013-10-10,74.5,57.7,45.5,57.8,48.7,43.9,100,75,38,30.30,30.15,9,1,20,0.00
2013-10-11,73.9,61.3,50.9,57.9,51.9,47.9,97,74,46,30.21,30.06,15,2,17,0.00
2013-10-12,70.0,61.6,51.6,62.8,51.2,40.3,90,70,42,30.30,30.03,13,4,13,0.08
2013-10-13,68.7,51.5,44.1,43.8,39.6,33.6,84,66,35,30.50,30.27,12,2,14,0.00
2013-10-14,62.8,50.1,39.9,48.6,41.1,36.5,93,73,47,30.53,30.24,10,2,13,0.00
2013-10-15,62.4,54.7,48.6,61.6,50.2,42.8,100,85,72,30.24,29.83,17,4,17,0.17
2013-10-16,55.0,50.6,48.0,50.9,47.0,41.8,100,88,75,30.00,29.88,10,4,14,0.00
2013-10-17,52.7,47.9,43.5,48.2,45.2,39.5,97,91,76,30.00,29.91,10,2,11,0.16
2013-10-18,49.1,44.4,39.6,43.8,38.7,35.8,95,81,67,30.03,29.94,13,4,15,0.00
2013-10-19,52.9,45.5,39.2,37.3,34.3,29.3,85,67,42,29.97,29.83,16,4,17,0.00
2013-10-20,52.3,49.0,37.8,45.9,40.7,34.2,94,74,54,30.00,29.83,6,3,8,0.00
2013-10-21,50.4,42.0,33.8,42.7,29.7,20.0,82,62,47,30.06,29.83,21,7,22,0.00
2013-10-22,45.9,36.3,28.8,28.1,25.2,21.3,77,64,49,30.09,30.00,10,3,10,0.00
2013-10-23,44.1,36.7,29.5,29.2,25.3,20.7,84,65,41,30.12,30.00,17,5,17,0.00
2013-10-24,43.0,37.1,33.1,27.8,24.9,21.1,78,62,49,30.42,30.09,19,7,20,0.00
2013-10-25,51.4,40.4,28.8,27.8,24.0,21.0,76,54,38,30.48,30.03,22,6,26,0.00
2013-10-26,50.9,46.6,40.5,33.2,26.9,22.8,57,46,39,30.18,29.88,26,9,28,0.00
2013-10-27,57.6,43.2,31.5,30.8,26.5,23.4,75,53,36,30.18,30.00,13,3,17,0.00
2013-10-28,46.4,42.3,37.6,35.9,30.8,25.4,75,64,54,30.53,30.15,19,5,19,0.00
2013-10-29,56.3,44.7,36.5,43.1,36.4,26.6,90,73,55,30.50,30.27,10,2,12,0.00
2013-10-30,57.9,50.5,43.0,57.4,48.3,40.2,100,92,85,30.27,29.85,23,3,23,0.05
2013-10-31,62.4,57.1,45.3,62.4,56.6,40.6,100,98,83,29.85,29.35,25,5,25,0.49
2013-11-1,46.6,44.6,42.4,44.4,40.6,37.3,96,86,79,29.85,29.41,17,6,20,0.04
2013-11-2,46.6,42.5,39.4,42.5,38.7,34.5,100,87,64,30.27,29.85,14,5,14,0.00
2013-11-3,54.9,43.0,32.7,43.0,36.1,31.7,100,79,47,30.39,30.27,11,3,14,0.00
2013-11-4,56.8,49.9,44.4,42.2,37.7,33.8,80,64,46,30.36,30.18,17,5,19,0.00
2013-11-5,56.1,52.1,48.9,50.8,46.4,41.8,94,81,69,30.39,30.03,17,3,17,0.00
2013-11-6,56.5,46.0,34.0,56.5,42.1,24.4,100,87,61,30.27,29.83,29,10,30,0.25
2013-11-7,43.5,35.9,29.7,30.8,27.1,23.7,79,70,54,30.33,30.24,12,4,14,0.00
2013-11-8,47.7,38.5,28.4,30.9,28.5,25.6,90,69,48,30.42,29.97,22,4,28,0.00
2013-11-9,54.9,48.0,41.5,38.3,32.6,23.6,69,55,47,30.15,29.88,34,12,39,0.00
2013-11-10,50.4,42.9,36.9,28.4,26.3,23.1,65,52,39,30.42,30.15,26,8,26,0.00
2013-11-11,45.0,35.0,24.8,33.5,24.5,13.0,92,66,52,30.62,30.15,16,3,17,0.09
2013-11-12,32.9,25.6,21.4,17.3,14.2,10.7,79,62,45,30.80,30.59,17,2,18,0.00
2013-11-13,41.7,31.0,19.9,17.9,14.2,10.7,71,51,38,30.65,30.15,26,8,30,0.00
2013-11-14,47.7,39.8,33.4,25.3,20.9,14.7,54,47,41,30.15,29.97,18,7,21,0.00
2013-11-15,55.9,44.0,37.2,32.8,27.0,21.9,78,52,38,30.06,29.97,14,5,14,0.00
2013-11-16,59.4,49.6,37.6,55.8,47.0,31.0,100,91,77,30.03,29.65,28,8,30,0.00
2013-11-17,64.2,53.4,40.5,63.1,50.2,33.6,100,89,70,29.77,29.20,46,11,49,1.70
2013-11-18,40.3,35.6,28.2,34.0,25.4,20.0,79,66,53,30.33,29.77,35,13,38,0.00
2013-11-19,43.7,32.1,23.9,31.0,23.5,18.6,90,71,49,30.48,30.33,10,3,10,0.00
2013-11-20,45.1,37.8,32.9,34.6,27.8,21.8,89,69,43,30.39,30.18,17,5,18,0.04
2013-11-21,45.5,41.8,37.8,40.8,38.3,34.8,95,87,79,30.33,30.21,7,2,8,0.00
2013-11-22,40.8,33.9,25.9,37.2,25.7,14.1,90,72,53,30.59,30.33,20,7,22,0.00
2013-11-23,25.9,21.2,17.4,15.9,6.7,3.0,67,53,45,30.77,30.48,29,11,30,0.00
2013-11-24,32.5,21.1,16.0,11.2,4.0,2.3,56,47,38,30.77,30.36,24,7,27,0.00
2013-11-25,30.7,26.9,22.3,23.6,16.7,4.0,81,66,43,30.36,30.12,23,8,26,0.00
2013-11-26,32.2,26.8,15.1,25.6,16.3,1.6,78,65,48,30.27,30.09,26,7,29,0.00
2013-11-27,26.8,19.3,11.1,11.3,5.9,-1.2,71,56,51,30.33,30.24,22,8,22,0.00
2013-11-28,29.8,23.7,17.2,14.0,10.7,9.0,72,58,48,30.59,30.24,14,4,17,0.00
2013-11-29,35.6,23.5,13.5,20.6,13.4,7.6,78,66,44,30.71,30.44,6,2,9,0.00
2013-11-30,47.8,35.5,28.8,28.6,23.2,17.4,82,61,46,30.44,30.12,17,5,17,0.00
2013-12-1,45.5,34.0,28.2,29.2,25.4,22.0,85,72,48,30.21,30.06,9,2,9,0.00
2013-12-2,42.4,32.9,24.1,34.1,26.2,20.5,89,77,56,30.09,29.85,12,3,14,0.04
2013-12-3,40.1,38.0,33.6,40.1,37.7,30.7,100,99,89,29.88,29.77,11,3,13,0.17
2013-12-4,51.8,43.7,37.4,51.6,42.9,32.8,100,97,78,29.88,29.59,23,5,29,0.03
2013-12-5,37.2,25.6,19.0,32.5,14.5,6.7,86,63,50,30.33,29.71,24,12,27,0.00
2013-12-6,19.0,15.8,10.0,7.8,4.1,-2.2,71,59,53,30.65,30.33,20,10,22,0.00
2013-12-7,18.5,10.4,4.1,1.6,-3.5,-7.8,57,53,46,30.74,30.59,17,6,18,0.00
2013-12-8,26.4,19.5,8.8,21.6,10.5,-6.1,89,69,50,30.68,30.03,14,3,17,0.00
2013-12-9,24.1,13.5,-1.7,21.4,2.6,-17.0,91,63,46,30.27,29.97,19,8,26,0.00
2013-12-10,22.3,8.4,-6.0,6.6,-6.8,-21.0,64,49,47,30.33,30.00,27,8,27,0.00
2013-12-11,15.3,8.2,-4.2,9.2,-3.3,-13.9,79,59,50,30.59,30.30,22,7,23,0.00
2013-12-12,19.8,9.0,-3.8,5.4,-3.0,-13.6,64,58,46,30.59,30.24,18,6,20,0.00
2013-12-13,35.6,22.9,13.5,22.1,13.8,4.9,80,68,53,30.27,30.18,13,4,15,0.00
2013-12-14,30.9,26.0,20.1,24.2,20.6,16.1,85,80,72,30.21,30.00,12,5,15,0.00
2013-12-15,21.2,13.2,5.5,16.6,1.0,-10.4,84,59,46,30.21,29.97,25,10,30,0.00
2013-12-16,21.4,10.3,-1.7,8.6,-2.5,-17.0,78,57,45,30.24,30.06,15,4,15,0.00
2013-12-17,35.1,25.0,14.2,21.2,16.0,8.9,89,70,52,30.15,29.94,21,8,23,0.00
2013-12-18,36.7,25.7,11.1,23.5,11.7,0.6,67,56,38,30.21,29.83,23,7,30,0.00
2013-12-19,36.0,30.8,22.6,30.9,24.2,16.6,93,77,63,30.03,29.85,14,4,17,0.00
2013-12-20,32.7,30.5,26.1,30.9,28.5,25.0,96,92,88,29.94,29.83,9,0,14,0.00
2013-12-21,32.9,29.1,25.3,32.9,28.9,24.8,100,99,96,29.97,29.74,0,0,0,0.00
2013-12-22,31.5,26.7,20.3,31.5,24.1,17.6,100,90,77,30.21,29.74,0,0,0,0.00
2013-12-23,20.3,20.3,20.3,17.6,17.6,17.6,89,89,89,30.48,30.18,0,0,0,0.00
2013-12-24,20.3,12.4,-4.5,17.6,3.3,-13.6,89,68,52,30.59,30.39,0,0,0,0.00
2013-12-25,24.3,20.6,10.8,19.9,15.2,-2.6,87,79,54,30.42,30.12,0,0,0,0.00
2013-12-26,27.1,21.3,9.5,21.5,14.9,4.0,87,76,64,30.33,30.12,0,0,0,0.00
2013-12-27,39.6,28.8,12.2,27.6,21.7,8.6,91,76,56,30.36,30.09,19,4,23,0.09
2013-12-28,47.3,37.7,27.3,32.6,27.5,20.8,82,67,50,30.18,29.85,20,6,23,0.17
2013-12-29,39.7,22.9,1.6,28.9,13.0,-10.9,82,66,55,30.30,29.83,23,8,25,0.00
2013-12-30,6.8,0.3,-8.5,-6.0,-12.0,-20.4,55,55,55,30.39,30.24,13,5,15,0.00
2013-12-31,8.6,4.2,-3.3,-4.3,-8.4,-15.5,55,55,55,30.39,30.24,10,5,11,0.00
2014-1-1,20.7,11.4,4.1,11.9,1.4,-8.5,72,64,55,30.42,30.30,10,4,12,0.00
2014-1-2,23.5,8.8,-6.0,7.6,-3.0,-21.2,72,59,46,30.48,30.27,13,5,15,0.00